Tracking 29058 objects as of 20-Jun-2024
HD Live streaming from Space Station
objects crossing your sky now

DELTA 1 DEB

Track DELTA 1 DEB now!
10-day predictions


NORAD ID: 8679
Int'l Code: 1975-004G
Perigee: 554.5 km
Apogee: 786.2 km
Inclination: 98.8 °
Period: 98.0 minutes
Semi major axis: 7041 km
RCS: 0.0087 m2 (small)
Launch date: January 22, 1975
Source: United States (US)
Launch site: AIR FORCE WESTERN TEST RANGE (AFWTR)

Note: This is SATELLITE DEBRIS
Your satellite tracking list
Your tracking list is empty




NASA's NSSDC Master Catalog

Two Line Element Set (TLE):
1 08679U 75004G   24171.76171025  .00009021  00000-0  12487-2 0  9996
2 08679  98.7922 342.4324 0164567 236.4346 122.1052 14.69323943534467
Source of the keplerian elements: AFSPC